METEOR 2-17 DEB

Satellite information

Favourite Embed

Satellite Type and Status

DEBRISIN ORBIT

Key statistics

Satellite METEOR 2-17 DEB at a glance.

Uptime

13673

Days in orbit

Revolutions

≈ 14.0

Per day

Orbit

LEO

Low Earth Orbit

Inclination

82.5

Latest

Satellite identification and parameters

Extended collection of information and parameters for METEOR 2-17 DEB.

Object identification

Identified? True

Debris? True

Object name: METEOR 2-17 DEB

International designator: 1988-005Y

Object number (NORAD): 35364

Object ID (CCSDS): 35364

Country: COMMONWEALTH OF INDEPENDENT STATES (CIS)

Current information (Y/N): Y

RCS size: SMALL

Orbital parameters

Period: 102.752 minutes

Inclination: 82.5491 deg

SMA: 7266.959 km

Apoapsis: 911.588 km

Periapsis: 866.06 km

RAAN: 190.6183 deg

Eccentricy: 0.0031325

Argument of periapsis: 81.4072 deg

Mean anomaly: 343.7368 deg

Mean motion: 14.01437444 rev/day

Mean motion (dot): 0.00002028 rev/day2

B* drag term: 0.0013282 1/REarth

Two-line elements (TLE)

Creation date: June 30, 2025, 5:29 p.m.

Reference frame: TEME

Reference center: EARTH

Epoch: June 30, 2025, 8:48 a.m. UTC

TLE line 0: 0 METEOR 2-17 DEB

TLE line 1: 1 35364U 88005Y 25181.36718932 .00002028 00000-0 13282-2 0 9998

TLE line 2: 2 35364 82.5491 190.6183 0031325 81.4072 343.7368 14.01437444501468

Live tracking on map

Real-time ground track for satellite METEOR 2-17 DEB.

In-orbit conjunctions

A list of the most updated potential collisions computed for object METEOR 2-17 DEB.

Target Orbit TCA Probability of collision Miss distance Type
TIMATION 1 LEO 2025-04-22 19:08:16 0.0002940142 47.0 (m) PAYLOAD
CZ-6A DEB LEO 2025-01-20 15:28:44 0.0002382545 484.0 (m) DEBRIS

Associated space launch

Second generation soviet meteorological satellite

METEOR 2-17 DEB was lifted into orbit during the mission ‘Tsiklon-3 | Meteor-2 17’, on board a Tsiklon-3 space rocket.

The launch took place on Jan. 30, 1988, 10:59 a.m. from 32/1.

For more information about the launch, click the button.

Launch to space Tsiklon-3 | Meteor-2 17
Tsiklon-3 | Meteor-2 17

Agency: N/A

Status: Launch Successful

Launch date: Jan. 30, 1988, 10:59 a.m. UTC

Rocket: Tsiklon-3

Launch pad: 32/1

Location: Plesetsk Cosmodrome, Russian Federation

...

Latest news about this satellite

There are no fresh news available about this satellite. Check back as we update our databases every day.


Newsletter sign-up

Weekly statistics, charts and insights to help you stay on top of the space industry.